Location: Saint Louis
(38.6272°N, 90.1978°W)
Time: 23:43:07
(UTC-05:00)

HST - Visible Passes

Search period start: 18 April 2014 00:00
Search period end: 28 April 2014 00:00
Orbit: 548 x 553 km, 28.5° (Epoch: 17 April)

Date Brightness Start Highest point End Pass type
(mag) Time Alt. Az. Time Alt. Az. Time Alt. Az.
18 Apr 2.6 20:12:21 10° SSW 20:15:04 17° S 20:17:48 10° SE visible
18 Apr 3.2 21:52:50 10° SW 21:53:41 14° SW 21:53:41 14° SW visible
19 Apr 2.6 20:05:34 10° SW 20:08:29 18° S 20:11:25 10° SE visible
19 Apr 3.0 21:46:21 10° SW 21:47:41 15° SW 21:47:41 15° SW visible
20 Apr 2.9 21:39:55 10° SW 21:41:38 16° SSW 21:41:38 16° SSW visible
21 Apr 2.9 21:33:35 10° SW 21:35:32 15° SSW 21:35:32 15° SSW visible
22 Apr 3.0 21:27:22 10° SW 21:29:24 14° SSW 21:29:24 14° SSW visible
23 Apr 3.1 21:21:25 10° SW 21:22:54 12° SSW 21:23:16 12° SSW visible
